Wind_Speed
5 5 6 6 6 6 6 7 8 9 9 10 9 9 9 8 8 8 7 7 6 5 4 4 5 5 6 7 8 8 9 9 9 9 10 10 11 11 11 12 13 14 14
4 4 4 5 5 5 5 6 8 8 9 8 8 7 7 7 7 7 7 7 6 6 5 5 5 6 7 8 8 9 10 11 11 11 12 12 12 12 13 13 14 15 15
3 3 3 3 3 3 3 4 5 6 6 6 5 5 5 5 5 6 6 6 6 6 6 6 7 8 8 9 10 11 11 12 12 12 13 13 13 14 14 15 15 16 16
3 3 2 2 1 1 2 2 3 4 4 4 4 4 5 5 6 6 6 6 6 6 6 7 7 8 9 10 10 10 11 11 11 12 12 13 14 14 14 15 15 16 16
4 3 3 3 2 1 0 1 2 3 3 4 4 5 5 6 6 7 7 6 6 6 6 7 7 8 9 9 9 10 10 10 11 11 12 13 13 14 14 14 15 15 16
6 6 5 5 4 3 2 1 1 2 3 4 4 5 6 7 7 8 8 8 8 8 8 8 9 9 10 10 11 11 11 11 11 12 12 13 14 14 14 14 14 14 15
8 7 7 6 5 5 3 2 1 2 3 4 4 5 6 8 9 9 10 10 10 10 10 11 11 12 12 13 13 13 13 13 13 13 13 14 14 14 14 14 14 14 14
9 9 9 8 7 6 5 4 3 3 3 4 5 6 7 8 9 10 11 11 11 12 12 13 13 13 14 14 15 15 15 15 15 14 14 14 14 14 14 14 14 14 14
10 10 10 9 8 7 6 5 5 4 4 5 5 6 8 9 10 11 11 11 12 12 13 13 13 14 14 15 15 15 15 15 15 14 14 14 14 14 14 14 14 14 14
10 10 10 9 9 8 7 7 6 6 5 6 6 7 8 9 11 12 12 12 12 12 12 12 13 13 13 14 13 13 13 13 14 14 14 14 14 14 14 14 14 15 15
9 8 8 8 7 7 7 7 7 6 6 6 7 8 9 10 12 13 13 13 13 13 13 12 13 13 13 13 13 13 13 13 13 13 14 14 14 14 15 15 15 16 17
5 6 6 6 6 7 8 7 7 7 7 7 7 8 10 11 12 14 14 15 14 14 13 13 13 14 13 13 13 13 13 13 14 14 14 15 16 16 17 17 18 19 19
2 3 4 6 6 7 8 8 8 8 9 9 9 10 11 13 14 15 16 16 15 15 15 14 15 15 15 15 14 14 14 15 15 16 16 17 18 19 20 21 21 22 23
2 4 5 7 8 9 10 10 10 11 11 12 13 14 15 15 16 17 18 19 18 17 17 17 17 17 17 17 17 16 16 17 18 19 20 21 22 23 24 25 26 27 27
4 6 7 9 10 11 11 12 13 13 13 14 15 17 18 19 20 21 22 23 22 22 21 21 21 21 20 20 20 20 20 20 20 22 23 24 25 27 28 29 30 31 32
7 8 9 10 11 12 13 14 15 15 16 17 18 20 21 23 24 25 27 27 27 27 26 26 25 26 25 24 23 22 23 23 24 25 26 27 28 30 32 33 34 35 36
11 11 12 13 13 14 15 16 17 18 20 21 23 24 25 27 28 30 32 33 33 32 32 32 31 30 29 28 27 27 26 26 26 27 29 30 31 32 34 35 37 38 40
15 15 16 16 16 16 17 18 19 21 23 26 28 30 31 33 34 36 37 39 39 38 37 37 35 34 32 31 30 30 29 29 29 30 31 32 33 35 36 37 39 41 42
20 20 20 20 19 20 20 21 23 25 28 30 33 35 37 39 39 40 41 41 41 42 41 39 37 34 33 33 32 31 31 31 30 31 33 34 35 37 38 39 41 43 44
24 25 25 24 24 23 24 25 27 29 33 36 38 39 40 41 41 40 39 40 41 42 41 39 37 34 32 33 32 31 29 29 31 32 34 35 37 39 41 42 44 45 47
27 28 28 28 27 27 27 28 30 33 36 40 43 42 41 40 39 37 34 33 33 34 35 35 33 33 31 29 29 29 28 28 31 33 35 37 39 41 43 44 46 47 49
29 29 30 30 30 30 30 31 33 35 38 41 42 43 42 39 34 29 25 27 26 28 29 29 29 30 28 26 27 27 28 30 32 34 38 40 42 44 46 47 48 50 52
29 30 31 31 32 33 34 35 36 38 40 41 43 43 42 38 34 29 27 25 24 24 24 25 27 26 27 28 28 30 32 34 36 38 41 44 45 48 50 51 53 55 57
31 31 32 33 34 35 36 38 39 40 41 42 43 42 40 38 34 30 28 27 25 24 24 25 25 27 29 31 33 34 37 40 43 46 46 48 50 52 55 56 58 60 62
32 33 34 35 37 38 39 40 41 42 42 43 42 42 40 37 34 31 29 28 28 28 28 29 30 31 33 36 38 40 42 45 48 50 53 54 56 58 60 61 63 65 66
33 34 35 37 38 39 40 41 42 42 42 42 41 40 38 37 34 32 31 31 30 31 33 34 35 37 38 41 43 45 48 50 52 54 56 58 60 62 64 65 67 68 68
Wind_Direction
237 231 227 226 232 243 255 260 263 263 261 261 260 260 260 258 254 252 249 249 248 251 260 267 272 277 283 287 288 288 287 285 282 277 272 267 264 262 262 263 265 265 265
236 234 227 224 229 241 255 263 267 266 265 263 260 259 256 254 251 248 243 240 242 246 251 257 264 271 276 279 281 281 282 281 279 276 272 267 264 263 262 262 263 264 264
209 213 212 209 213 226 246 261 267 266 264 263 260 255 251 245 240 236 234 234 238 243 248 253 259 266 271 274 275 277 278 278 276 275 273 270 267 265 264 263 263 263 264
162 179 175 169 179 203 229 252 259 260 259 257 256 252 248 245 242 239 237 237 238 242 246 250 256 263 267 269 270 272 273 274 274 274 273 272 270 268 266 264 264 264 265
124 127 120 112 103 100 114 259 257 258 255 254 251 247 247 247 247 246 246 244 242 242 244 248 253 258 261 263 265 267 269 270 271 272 272 271 269 267 266 265 265 264 266
102 102 97 90 82 77 73 52 292 270 258 252 250 247 247 249 250 252 252 251 250 248 247 249 253 256 259 261 262 264 266 267 267 268 269 269 268 266 266 265 265 265 266
91 88 84 78 70 61 52 37 347 308 282 266 257 254 252 252 254 257 258 258 257 255 254 256 257 259 261 263 263 265 266 266 266 266 267 266 265 265 265 265 266 267 268
88 84 79 74 64 55 45 30 6 335 310 291 278 270 266 264 264 265 266 265 265 264 263 263 264 265 266 266 267 267 267 267 267 267 266 265 264 264 264 266 268 269 270
91 86 81 72 65 57 48 32 11 350 331 313 298 287 280 277 277 276 274 273 273 272 271 270 271 270 270 271 272 271 270 270 268 268 267 266 266 267 268 269 272 274 275
91 86 80 71 62 51 42 27 12 356 340 323 309 299 293 289 287 285 284 283 282 281 279 277 276 274 273 273 273 272 272 272 270 269 270 270 271 272 273 274 276 279 280
87 79 69 59 49 38 29 16 7 358 347 334 320 309 302 297 294 292 291 290 288 285 282 279 276 274 272 272 272 272 273 273 272 272 273 273 274 276 277 278 279 280 281
78 65 50 36 26 17 10 2 356 351 344 335 325 313 306 301 297 295 293 291 289 286 281 277 274 272 271 270 270 271 273 273 274 274 275 275 276 277 278 278 278 278 278
38 19 13 4 356 354 351 350 344 338 332 326 320 313 307 302 299 297 293 289 287 283 278 274 271 270 269 269 270 271 273 274 275 275 276 276 277 277 278 278 278 277 277
330 333 329 330 334 331 331 332 331 328 324 319 314 309 305 300 298 295 292 287 284 280 275 271 268 267 267 267 268 270 272 273 274 275 276 276 277 277 277 277 277 277 278
300 313 315 319 321 320 320 323 326 324 321 316 311 306 303 301 297 294 291 287 282 277 272 268 267 265 264 265 266 267 269 271 272 273 274 274 275 276 277 277 277 278 278
286 297 303 308 311 312 314 317 319 320 318 316 311 306 302 298 295 292 288 284 279 274 269 265 264 263 263 263 263 265 267 269 271 273 274 274 275 276 276 276 277 277 278
281 286 291 295 299 303 306 310 313 313 312 310 307 303 297 294 290 288 284 280 276 272 268 265 262 262 261 261 262 263 265 268 271 272 274 275 276 277 278 277 277 277 277
275 278 281 285 289 292 295 300 303 306 306 304 301 297 291 287 284 282 279 277 273 270 268 265 263 262 262 262 262 263 265 266 268 271 274 276 278 279 279 278 278 277 277
271 273 276 279 282 284 288 293 297 300 299 297 294 290 288 285 284 282 279 276 271 269 268 267 265 263 263 263 264 264 264 265 268 272 275 277 279 280 280 279 278 278 277
272 273 274 276 277 279 284 289 293 295 293 292 293 292 293 290 289 287 283 281 276 273 271 267 264 263 264 264 263 264 266 269 274 277 278 279 280 280 280 280 279 278 277
273 274 274 274 275 278 282 287 290 292 294 296 299 300 300 300 300 297 293 290 282 278 275 268 264 262 266 267 267 270 275 280 282 282 283 282 282 281 281 281 280 279 278
272 272 273 274 276 279 283 288 293 295 298 300 303 305 312 315 315 309 299 298 289 281 280 272 267 268 272 278 282 283 285 285 285 285 286 286 285 284 282 282 281 280 280
269 270 270 271 274 278 283 288 292 295 298 300 302 307 311 317 319 318 315 311 299 289 286 279 277 276 282 286 289 292 292 291 290 288 288 289 288 287 286 286 284 283 282
267 267 267 269 272 277 281 285 290 293 295 298 301 304 308 314 317 321 319 315 312 303 295 293 294 295 294 292 292 293 293 293 293 294 292 291 290 289 288 288 287 285 284
264 264 265 266 270 273 278 282 286 289 291 294 297 301 305 312 317 317 317 314 311 307 304 301 301 301 297 296 294 294 293 292 292 292 293 293 291 290 289 288 287 286 285
263 263 263 265 267 271 275 279 281 284 287 290 293 296 302 309 312 312 309 308 305 303 302 300 298 297 296 295 294 293 292 291 291 291 291 290 290 290 289 289 288 287 286
Height
5903 5903 5904 5904 5905 5905 5905 5905 5906 5906 5907 5907 5907 5907 5906 5906 5906 5906 5906 5907 5907 5907 5908 5908 5908 5908 5908 5908 5908 5908 5908 5908 5908 5908 5908 5908 5908 5908 5908 5908 5908 5908 5908
5902 5902 5902 5903 5903 5904 5904 5904 5904 5904 5905 5905 5905 5905 5904 5904 5904 5904 5904 5905 5905 5905 5905 5906 5906 5906 5905 5905 5905 5905 5905 5905 5905 5906 5906 5906 5906 5906 5906 5906 5906 5906 5906
5900 5901 5901 5901 5902 5902 5902 5902 5903 5903 5903 5902 5902 5902 5902 5902 5902 5902 5902 5903 5903 5903 5903 5903 5903 5903 5903 5902 5902 5902 5902 5903 5903 5903 5903 5903 5903 5903 5903 5903 5903 5903 5903
5899 5899 5900 5900 5900 5901 5901 5901 5901 5901 5901 5901 5901 5901 5900 5901 5900 5900 5901 5901 5901 5901 5901 5901 5901 5900 5900 5900 5900 5900 5900 5900 5900 5900 5900 5900 5900 5900 5900 5901 5900 5901 5901
5899 5899 5899 5899 5899 5899 5900 5900 5900 5900 5900 5899 5899 5899 5899 5899 5898 5898 5898 5899 5899 5899 5899 5899 5898 5898 5897 5897 5897 5897 5897 5897 5897 5897 5897 5897 5897 5897 5897 5898 5897 5898 5898
5898 5898 5898 5898 5898 5898 5898 5898 5898 5898 5898 5898 5898 5897 5897 5897 5897 5896 5897 5897 5897 5897 5897 5896 5896 5896 5895 5895 5895 5895 5894 5894 5894 5894 5894 5894 5894 5894 5895 5895 5895 5895 5895
5898 5898 5898 5898 5898 5897 5897 5897 5897 5897 5897 5896 5896 5896 5896 5895 5895 5895 5895 5895 5895 5895 5895 5894 5894 5893 5893 5892 5892 5892 5892 5892 5891 5891 5891 5891 5891 5891 5892 5892 5892 5892 5892
5898 5898 5897 5897 5897 5897 5896 5896 5896 5895 5895 5895 5895 5894 5894 5894 5893 5893 5893 5893 5893 5892 5892 5892 5891 5891 5890 5889 5889 5889 5889 5889 5888 5888 5888 5888 5888 5888 5889 5889 5889 5889 5888
5898 5898 5897 5897 5897 5896 5896 5896 5895 5894 5894 5893 5893 5893 5892 5892 5891 5891 5890 5890 5890 5890 5889 5889 5888 5888 5887 5886 5886 5886 5886 5885 5885 5885 5885 5885 5885 5885 5885 5885 5885 5885 5885
5898 5898 5897 5897 5896 5896 5895 5895 5894 5894 5893 5892 5892 5891 5890 5890 5889 5888 5888 5888 5888 5887 5887 5886 5885 5885 5884 5884 5883 5883 5882 5882 5882 5881 5881 5882 5882 5882 5882 5882 5882 5882 5882
5898 5898 5897 5897 5896 5896 5895 5894 5893 5892 5892 5891 5890 5889 5888 5888 5887 5886 5885 5885 5885 5884 5884 5883 5883 5882 5881 5880 5880 5879 5879 5879 5878 5878 5878 5878 5878 5878 5878 5878 5878 5878 5878
5898 5897 5897 5896 5896 5895 5894 5893 5892 5891 5890 5889 5888 5887 5886 5885 5884 5883 5883 5882 5882 5881 5880 5880 5879 5878 5878 5877 5876 5876 5876 5875 5875 5874 5874 5874 5874 5874 5874 5874 5874 5873 5873
5897 5897 5896 5896 5895 5894 5893 5892 5891 5890 5889 5888 5887 5885 5884 5883 5882 5880 5879 5879 5878 5878 5877 5876 5876 5875 5874 5874 5873 5872 5872 5871 5871 5871 5870 5870 5869 5869 5869 5869 5868 5868 5868
5896 5896 5895 5894 5893 5892 5891 5890 5889 5888 5887 5886 5885 5883 5882 5880 5879 5878 5876 5875 5875 5874 5873 5873 5872 5871 5870 5869 5869 5868 5867 5867 5866 5866 5865 5865 5865 5864 5863 5863 5863 5862 5862
5895 5894 5893 5892 5891 5890 5889 5888 5887 5886 5885 5883 5882 5880 5879 5877 5876 5875 5873 5872 5871 5870 5869 5868 5867 5866 5865 5865 5864 5863 5863 5862 5861 5860 5860 5859 5859 5858 5858 5857 5856 5855 5855
5893 5893 5892 5890 5889 5888 5887 5886 5885 5883 5882 5880 5879 5877 5875 5873 5872 5870 5868 5867 5865 5864 5864 5862 5861 5861 5860 5859 5858 5858 5857 5857 5856 5855 5854 5853 5853 5852 5851 5850 5849 5848 5847
5891 5890 5889 5888 5887 5885 5884 5883 5881 5880 5878 5876 5874 5872 5870 5868 5865 5863 5861 5860 5858 5857 5856 5855 5854 5854 5854 5853 5852 5852 5851 5850 5850 5849 5847 5846 5845 5844 5843 5842 5841 5840 5838
5888 5887 5886 5885 5883 5882 5881 5879 5878 5876 5874 5871 5869 5867 5864 5861 5858 5855 5853 5851 5849 5848 5846 5846 5846 5846 5846 5846 5845 5845 5844 5843 5842 5841 5840 5839 5837 5836 5835 5834 5832 5830 5829
5884 5883 5882 5881 5880 5878 5877 5875 5873 5871 5869 5866 5863 5860 5857 5854 5851 5847 5844 5841 5840 5838 5838 5837 5837 5838 5838 5838 5838 5837 5836 5835 5835 5834 5832 5831 5829 5827 5825 5824 5822 5821 5819
5880 5880 5879 5877 5876 5874 5872 5870 5868 5866 5863 5860 5857 5854 5851 5847 5844 5840 5836 5833 5830 5830 5829 5829 5830 5830 5830 5830 5830 5829 5828 5827 5826 5825 5824 5822 5821 5818 5816 5814 5812 5811 5809
5876 5875 5874 5873 5871 5869 5867 5865 5863 5861 5858 5855 5851 5847 5844 5841 5837 5833 5829 5826 5824 5822 5822 5822 5822 5822 5823 5822 5822 5821 5820 5819 5818 5817 5815 5813 5811 5809 5806 5804 5801 5799 5796
5871 5870 5869 5868 5866 5865 5863 5860 5859 5856 5853 5850 5846 5843 5839 5835 5831 5827 5823 5820 5817 5816 5816 5815 5816 5816 5816 5815 5814 5813 5813 5812 5810 5808 5806 5804 5801 5798 5795 5792 5789 5786 5782
5865 5865 5864 5863 5861 5860 5858 5855 5853 5850 5848 5845 5841 5838 5834 5831 5827 5823 5819 5816 5813 5812 5810 5810 5809 5809 5809 5809 5807 5806 5804 5802 5800 5799 5796 5792 5789 5786 5782 5779 5775 5772 5768
5858 5858 5858 5857 5855 5854 5852 5849 5846 5844 5842 5838 5835 5832 5828 5825 5822 5818 5815 5812 5810 5808 5806 5805 5804 5803 5802 5801 5799 5797 5795 5792 5788 5785 5783 5780 5776 5771 5767 5763 5759 5755 5751
5850 5851 5851 5850 5849 5847 5845 5843 5840 5837 5834 5831 5828 5825 5822 5819 5816 5813 5811 5808 5805 5803 5801 5799 5797 5796 5794 5792 5790 5787 5784 5781 5777 5773 5768 5764 5760 5755 5751 5746 5741 5737 5732
5842 5843 5843 5842 5841 5839 5837 5835 5832 5829 5826 5823 5821 5818 5815 5813 5810 5807 5805 5802 5799 5797 5795 5792 5790 5787 5785 5782 5779 5776 5772 5768 5764 5759 5754 5749 5744 5739 5733 5728 5722 5717 5712